Wind_Speed
25 29 27 30 36 40 38 33 26 19 16 21 31 38 46 55 64 75 85 82 66 55 47 40 37 29 22 14 13 20 28 35 46 60 67 80 90 102 103 103 99 96 89 84 80 74 69
24 19 22 31 39 39 34 24 15 11 15 23 32 40 48 55 64 75 85 85 73 60 51 43 39 33 20 11 8 14 22 31 42 56 65 75 86 96 100 100 99 97 91 88 82 76 70
14 16 24 32 38 37 27 19 15 15 20 27 35 42 48 56 63 73 85 91 82 66 56 48 43 37 23 9 2 8 16 29 40 52 61 69 78 91 97 98 100 97 95 90 83 75 70
12 19 27 33 37 35 22 20 20 19 23 29 35 42 48 56 62 71 80 89 90 77 64 53 46 39 25 13 6 6 13 24 38 47 56 67 77 88 96 97 102 100 97 91 82 75 70
12 21 28 32 34 35 25 21 21 22 25 29 35 41 47 55 60 68 76 84 93 91 75 63 53 42 28 15 9 8 13 22 32 41 48 62 73 86 93 97 102 98 95 88 80 74 69
13 22 27 30 31 35 35 25 24 23 26 29 34 39 45 52 57 64 72 80 91 94 86 70 58 48 39 23 10 11 13 17 23 30 41 55 67 83 93 96 97 96 93 86 79 74 69
15 23 26 29 30 33 36 36 28 23 25 29 33 37 43 49 55 60 67 76 88 96 96 82 63 54 45 31 16 11 17 19 22 27 39 54 69 84 92 97 98 97 91 84 80 76 70
16 20 24 27 30 32 34 35 36 27 22 27 32 35 40 47 51 57 64 72 80 88 95 96 75 58 48 40 24 14 15 19 27 30 40 54 71 87 92 97 98 96 91 85 83 78 72
16 21 22 25 28 31 33 33 35 34 24 25 30 34 37 43 48 53 58 64 73 81 88 95 90 66 53 43 31 21 13 19 26 35 43 56 74 86 92 95 97 95 90 87 84 80 75
16 18 19 24 27 30 32 33 34 35 33 26 28 31 34 38 44 49 53 58 66 73 81 89 93 82 60 47 35 24 15 18 23 34 48 55 73 86 90 95 97 94 90 86 83 80 76
13 20 19 21 25 26 29 32 34 33 34 32 28 30 33 36 41 46 50 53 60 66 72 80 88 90 73 57 44 33 19 12 19 29 44 58 70 83 88 90 92 92 88 84 80 78 74
17 19 22 22 22 22 26 31 33 33 33 32 33 34 35 36 38 42 46 49 55 60 65 72 79 85 86 68 54 38 29 17 9 20 39 55 71 80 85 87 90 91 87 83 80 77 73
19 19 23 18 23 21 21 28 31 32 30 32 34 34 35 37 38 40 44 47 50 54 59 64 70 76 82 81 63 49 32 26 13 9 28 48 67 77 81 83 85 84 84 82 80 76 73
23 19 22 23 27 19 20 27 31 32 27 27 30 32 34 34 36 38 40 43 46 50 55 58 62 67 74 79 76 59 46 32 25 12 13 37 61 72 75 77 77 77 77 76 74 72 72
24 22 25 27 23 19 20 25 28 32 28 24 26 28 30 30 34 35 36 38 42 47 49 52 55 60 63 69 74 76 57 43 37 24 16 25 51 68 70 72 70 71 72 71 72 72 70
28 29 28 30 25 22 24 24 27 30 26 25 26 28 29 28 28 31 35 39 41 43 46 49 50 52 55 59 64 68 73 59 44 38 22 15 36 56 63 65 65 64 65 65 66 68 68
33 33 32 32 25 24 22 23 25 24 24 27 27 25 27 27 27 27 30 32 36 40 42 45 48 50 50 51 54 58 61 65 62 48 35 19 16 40 52 56 57 56 55 55 57 59 61
35 34 32 31 27 23 23 24 26 27 25 25 29 29 29 27 25 25 28 30 33 36 38 41 44 46 47 49 49 48 51 53 55 57 50 33 16 21 35 44 47 50 52 50 48 50 53
36 37 36 33 27 23 21 20 21 21 23 21 24 26 26 27 23 24 27 30 31 31 33 35 38 40 42 44 46 47 46 43 42 45 46 45 37 15 16 24 29 36 42 48 49 48 51
40 39 35 29 28 26 24 21 22 20 20 21 23 23 25 24 24 26 29 31 30 31 33 33 34 34 36 38 39 42 43 43 40 36 33 34 34 33 29 13 15 31 41 46 50 53 55
44 41 37 34 31 30 28 24 23 23 26 23 20 22 20 21 21 22 24 27 30 31 32 34 34 33 34 36 36 36 35 36 35 35 33 29 23 20 19 17 14 11 8 19 34 44 51
46 44 42 40 36 34 33 33 29 29 28 29 27 27 23 23 25 28 27 27 28 29 30 31 35 35 36 34 34 32 32 31 27 31 31 28 27 19 17 8 4 4 0 3 8 11 13
51 47 47 44 42 40 39 37 33 31 33 32 34 32 29 29 30 31 33 34 35 32 32 34 36 37 38 35 35 34 32 32 32 30 26 25 26 26 21 21 20 16 14 13 15 16 20
54 53 50 49 49 45 42 43 40 38 36 35 33 35 33 34 36 36 36 36 33 34 34 33 34 35 37 39 39 36 33 33 33 33 33 33 30 28 28 30 33 30 27 26 27 31 33
64 62 58 57 54 52 49 46 46 42 40 40 39 36 38 41 41 40 41 38 39 39 39 39 39 40 38 40 40 39 39 39 38 37 37 38 38 37 38 38 38 38 41 40 44 44 43
67 66 64 61 59 58 57 55 51 51 48 45 44 44 45 42 43 45 46 44 44 45 45 44 43 43 42 42 42 44 46 49 46 45 46 46 44 44 44 41 44 49 48 53 55 55 55
74 71 70 70 68 65 65 63 60 58 55 52 52 50 51 51 50 49 51 50 49 49 51 48 47 48 47 46 47 51 50 49 49 51 54 55 52 51 53 54 54 56 57 53 57 61 63
82 80 78 74 74 74 71 70 69 67 64 63 62 59 58 56 53 56 59 59 61 59 58 57 57 59 58 59 57 57 53 54 58 59 60 61 63 66 67 65 65 65 66 67 69 71 74
87 85 82 82 79 79 78 77 74 72 71 70 71 71 72 66 63 62 65 63 66 66 66 65 64 64 64 63 61 60 63 63 63 63 67 69 72 70 74 77 79 79 79 75 75 78 82
Wind_Direction
306 311 329 340 344 338 325 321 321 330 329 330 334 333 337 345 350 354 357 1 4 2 2 356 356 351 335 306 264 229 221 212 208 202 205 203 202 202 200 200 200 202 205 207 210 214 216
309 332 342 349 353 344 338 339 354 354 344 342 343 344 346 351 356 358 3 8 9 10 10 6 3 359 352 331 271 218 213 205 202 200 202 201 200 198 197 197 197 198 202 206 208 212 214
329 341 351 358 358 353 353 3 5 355 348 349 349 352 352 356 0 2 7 13 14 14 17 16 15 9 6 12 335 203 195 195 196 197 200 200 198 195 195 194 194 196 202 204 206 209 212
345 0 1 2 360 0 359 355 348 346 347 351 351 355 356 359 4 6 9 15 18 19 18 21 25 17 11 20 56 167 180 190 192 192 197 196 195 192 192 191 192 196 201 204 205 208 212
349 3 3 1 3 5 356 347 342 343 345 349 352 356 359 1 7 8 11 17 21 24 22 21 24 30 28 33 64 125 162 180 189 191 193 194 191 190 189 189 192 195 200 203 205 209 212
358 2 358 359 4 7 8 352 343 342 346 348 351 356 1 3 8 10 13 17 23 25 27 27 23 32 33 34 58 107 132 158 179 185 187 188 188 189 186 188 191 194 198 201 205 209 211
354 357 360 1 5 9 8 8 357 347 349 351 353 356 1 5 8 11 15 19 24 26 27 29 28 31 35 37 46 95 124 149 157 176 182 183 184 185 185 186 190 192 195 200 204 209 211
349 350 355 357 1 6 8 6 10 358 353 356 358 357 1 4 8 11 17 23 24 26 29 31 30 30 34 35 47 71 106 137 153 166 172 181 183 183 184 186 189 192 195 199 204 208 211
347 348 347 354 360 5 7 8 8 11 2 1 3 1 2 5 8 10 18 23 27 27 29 33 35 33 33 36 37 57 100 133 153 163 169 180 183 184 184 186 189 193 196 200 205 209 212
343 343 347 349 354 359 9 9 11 11 12 3 1 1 4 6 9 11 17 22 29 31 30 30 35 37 36 38 41 47 92 137 154 167 170 176 183 184 186 188 190 193 198 202 206 209 213
326 329 339 340 345 350 358 1 4 8 11 12 6 2 4 7 13 13 17 21 28 32 32 33 34 37 40 39 43 43 63 119 154 168 174 174 182 185 188 190 192 196 199 203 207 211 215
300 314 317 327 337 340 345 350 355 1 5 8 12 12 8 9 14 18 18 21 27 31 34 35 37 37 41 43 43 48 50 73 118 170 178 178 179 185 189 192 194 198 202 205 207 211 215
295 298 302 319 331 328 339 339 345 353 356 0 3 7 11 13 14 21 23 24 26 29 32 36 38 39 40 44 45 48 52 53 73 130 179 182 182 186 189 193 196 199 204 207 209 212 216
287 288 293 313 318 316 327 333 338 343 349 354 358 1 7 11 13 18 26 26 25 27 30 33 38 41 43 43 45 48 51 52 55 94 159 186 186 187 190 193 197 201 205 209 211 213 217
273 279 285 298 307 311 317 324 326 333 337 343 346 354 1 9 14 15 19 22 24 26 31 34 35 41 43 44 45 46 49 53 55 68 111 178 188 190 192 194 198 203 206 210 212 214 219
274 277 280 290 301 302 302 307 313 325 331 330 335 342 351 0 12 15 18 18 20 23 25 28 34 37 42 44 45 46 46 51 56 64 82 147 186 196 195 199 202 205 210 214 217 218 221
267 275 283 290 290 298 298 303 306 320 326 323 331 337 342 349 356 4 10 15 18 20 20 23 25 30 34 41 46 48 49 48 51 55 69 100 173 200 201 202 207 211 216 220 223 227 229
265 274 279 282 286 287 297 294 303 309 315 320 324 330 336 343 349 357 1 5 7 12 18 19 20 22 23 25 33 44 52 53 52 53 59 68 112 197 207 211 215 217 221 227 232 237 239
264 269 275 277 275 285 295 303 305 307 312 312 320 325 332 334 338 344 349 353 356 2 5 9 12 16 19 19 19 23 27 39 53 60 57 62 69 97 199 224 228 230 232 235 239 246 248
262 267 273 272 272 281 288 302 306 309 307 313 318 320 330 334 333 338 348 353 354 355 358 3 6 10 12 13 15 15 17 20 24 36 55 69 65 70 84 105 227 239 240 240 241 245 247
258 260 267 271 267 276 283 291 297 302 307 307 311 313 321 326 333 339 343 344 347 349 351 354 355 358 359 360 4 5 7 9 11 12 16 23 40 73 80 61 62 109 175 234 247 253 255
252 257 261 267 273 276 280 285 293 294 299 302 304 311 303 308 314 317 322 329 331 328 331 334 340 344 349 349 348 349 351 351 356 355 354 356 359 4 2 22 52 137 109 230 202 211 231
251 251 256 261 267 272 277 279 283 285 291 299 301 305 304 304 310 311 315 315 323 324 324 326 327 330 333 336 338 338 335 335 335 337 336 333 330 331 331 328 324 316 303 283 269 257 265
251 253 254 259 265 266 270 275 279 282 285 291 297 297 297 301 305 307 309 306 310 313 318 321 322 323 325 327 328 325 324 322 319 318 316 317 315 308 310 312 310 305 296 285 278 285 289
253 255 256 258 261 262 264 269 273 279 286 283 287 293 298 302 301 303 303 301 302 307 308 308 311 313 315 317 318 317 315 313 311 309 307 306 307 303 300 301 300 291 294 291 291 292 285
254 255 258 259 260 261 264 268 270 275 276 282 286 285 295 298 298 298 302 297 299 300 303 304 303 307 309 309 309 309 308 308 308 306 303 302 298 294 293 283 283 287 287 287 288 290 284
253 253 256 259 261 263 266 266 268 270 271 274 280 284 284 288 293 295 294 292 295 297 298 294 295 295 298 302 304 306 302 296 296 299 299 298 296 294 294 292 288 284 280 273 273 277 276
251 254 254 256 258 261 262 265 268 270 272 274 275 276 281 283 285 293 296 293 292 290 291 293 292 294 296 292 291 293 300 294 295 294 292 292 293 294 294 290 286 284 284 282 280 276 274
251 252 255 257 257 260 259 261 263 265 268 271 276 276 278 279 281 286 293 292 291 292 290 290 291 293 295 298 293 289 290 293 292 290 290 291 292 292 292 292 292 293 291 287 280 276 273
Height
10736 10733 10729 10722 10713 10701 10691 10682 10679 10678 10679 10678 10672 10663 10652 10639 10621 10598 10569 10534 10504 10482 10461 10443 10431 10423 10414 10410 10409 10410 10413 10422 10431 10441 10455 10475 10496 10517 10551 10586 10617 10648 10670 10684 10695 10707 10719
10733 10730 10726 10718 10709 10697 10687 10680 10676 10677 10676 10674 10668 10658 10646 10634 10615 10593 10566 10532 10503 10481 10462 10443 10431 10420 10413 10408 10406 10406 10411 10417 10427 10438 10450 10468 10489 10516 10548 10580 10612 10638 10657 10670 10685 10699 10711
10730 10728 10723 10715 10707 10696 10687 10681 10678 10676 10674 10670 10663 10653 10641 10628 10612 10591 10565 10535 10506 10481 10464 10447 10432 10420 10413 10408 10406 10407 10411 10417 10426 10437 10449 10468 10489 10516 10544 10576 10604 10629 10644 10660 10676 10691 10704
10728 10725 10719 10713 10705 10696 10689 10683 10679 10675 10671 10667 10660 10650 10639 10625 10610 10590 10568 10541 10512 10486 10465 10451 10437 10425 10417 10412 10409 10411 10414 10420 10426 10437 10451 10468 10489 10515 10541 10571 10596 10616 10636 10655 10672 10686 10697
10725 10722 10717 10711 10705 10696 10689 10684 10679 10674 10669 10664 10657 10649 10638 10624 10608 10591 10572 10551 10521 10492 10470 10452 10441 10431 10423 10418 10415 10415 10418 10424 10432 10443 10456 10472 10492 10515 10542 10567 10589 10614 10638 10657 10671 10684 10695
10722 10719 10715 10710 10704 10697 10690 10683 10678 10672 10668 10662 10656 10648 10638 10627 10611 10596 10577 10555 10528 10504 10483 10462 10449 10437 10431 10428 10424 10424 10427 10433 10441 10453 10464 10481 10500 10521 10542 10565 10593 10617 10637 10652 10667 10679 10690
10720 10717 10713 10709 10704 10697 10690 10684 10677 10672 10667 10661 10655 10648 10638 10628 10614 10600 10583 10561 10537 10517 10493 10475 10460 10448 10441 10438 10434 10433 10434 10439 10446 10456 10468 10485 10502 10522 10544 10568 10588 10612 10630 10647 10660 10671 10683
10717 10715 10711 10708 10703 10697 10692 10685 10678 10672 10666 10661 10655 10647 10639 10629 10617 10603 10587 10568 10550 10531 10512 10488 10472 10459 10451 10446 10446 10443 10445 10447 10451 10459 10472 10488 10505 10522 10545 10566 10589 10608 10625 10641 10652 10664 10678
10715 10712 10709 10707 10703 10698 10692 10686 10679 10673 10667 10661 10655 10648 10640 10631 10620 10609 10595 10581 10563 10545 10527 10509 10489 10474 10465 10460 10456 10455 10456 10456 10459 10465 10476 10489 10507 10528 10547 10568 10589 10607 10623 10636 10647 10659 10670
10713 10711 10708 10705 10702 10697 10693 10687 10681 10674 10668 10662 10657 10650 10642 10634 10624 10613 10602 10590 10575 10559 10542 10522 10504 10489 10481 10475 10469 10467 10466 10468 10471 10475 10480 10495 10513 10531 10551 10568 10587 10605 10619 10632 10642 10654 10666
10711 10709 10707 10704 10700 10697 10692 10687 10682 10676 10670 10664 10658 10651 10643 10636 10628 10618 10608 10597 10584 10572 10559 10542 10524 10508 10495 10487 10480 10478 10479 10481 10483 10486 10493 10500 10517 10535 10554 10573 10591 10606 10616 10629 10642 10653 10665
10708 10707 10705 10702 10699 10695 10691 10687 10682 10677 10671 10666 10660 10653 10646 10639 10631 10623 10614 10604 10593 10582 10571 10558 10544 10528 10514 10502 10495 10491 10492 10494 10496 10499 10503 10510 10520 10539 10556 10572 10587 10601 10614 10627 10640 10650 10662
10705 10704 10702 10700 10698 10694 10689 10686 10682 10678 10673 10667 10662 10655 10649 10642 10635 10628 10620 10611 10602 10593 10583 10571 10559 10547 10534 10521 10512 10506 10504 10505 10506 10510 10515 10521 10531 10544 10558 10574 10589 10602 10614 10626 10638 10649 10660
10701 10701 10699 10697 10695 10693 10688 10685 10682 10678 10674 10669 10663 10658 10652 10646 10640 10632 10625 10618 10610 10601 10592 10584 10574 10563 10552 10540 10531 10521 10516 10515 10516 10518 10524 10532 10542 10552 10565 10578 10591 10604 10617 10630 10642 10653 10660
10696 10696 10695 10694 10692 10690 10687 10683 10680 10678 10674 10670 10665 10660 10655 10649 10644 10637 10631 10624 10617 10608 10601 10593 10586 10578 10569 10560 10550 10541 10533 10527 10525 10527 10533 10541 10551 10560 10572 10583 10597 10607 10618 10629 10641 10650 10658
10689 10690 10690 10689 10688 10686 10683 10680 10678 10676 10673 10669 10665 10661 10657 10652 10646 10641 10636 10630 10623 10616 10610 10603 10596 10589 10583 10577 10569 10560 10552 10546 10541 10538 10543 10552 10562 10571 10579 10591 10601 10612 10621 10632 10641 10648 10657
10683 10684 10685 10684 10684 10682 10679 10677 10675 10673 10671 10666 10664 10661 10657 10654 10650 10645 10640 10636 10631 10625 10619 10613 10607 10602 10595 10590 10584 10580 10574 10566 10560 10557 10555 10561 10573 10582 10591 10599 10608 10619 10628 10637 10644 10651 10656
10677 10677 10679 10679 10678 10677 10675 10673 10672 10670 10669 10666 10662 10659 10656 10653 10651 10647 10644 10640 10636 10631 10627 10621 10616 10611 10607 10603 10599 10594 10590 10588 10584 10580 10575 10576 10582 10592 10602 10610 10618 10625 10632 10638 10645 10650 10655
10670 10671 10671 10673 10672 10672 10671 10669 10668 10666 10665 10663 10661 10658 10655 10653 10650 10647 10645 10642 10639 10635 10632 10628 10624 10620 10617 10613 10609 10607 10606 10604 10600 10599 10598 10596 10596 10600 10608 10616 10623 10629 10634 10640 10645 10648 10650
10661 10663 10665 10666 10667 10667 10666 10665 10664 10662 10661 10660 10659 10657 10654 10651 10649 10647 10644 10641 10639 10636 10633 10631 10629 10627 10624 10621 10619 10616 10614 10613 10613 10613 10611 10611 10612 10612 10614 10618 10622 10626 10630 10633 10638 10640 10640
10654 10655 10657 10659 10659 10660 10661 10660 10659 10658 10657 10656 10655 10654 10652 10650 10648 10646 10644 10641 10638 10636 10634 10632 10631 10630 10629 10627 10624 10622 10620 10620 10619 10619 10620 10622 10621 10621 10621 10623 10623 10623 10623 10625 10628 10631 10633
10643 10645 10647 10649 10651 10653 10653 10653 10653 10653 10652 10652 10651 10650 10649 10648 10646 10644 10642 10639 10638 10636 10634 10633 10630 10629 10628 10627 10627 10626 10625 10623 10623 10623 10622 10622 10623 10625 10625 10625 10626 10625 10624 10623 10622 10620 10619
10632 10634 10636 10639 10641 10642 10644 10644 10646 10646 10646 10646 10645 10644 10643 10643 10642 10641 10639 10637 10635 10632 10631 10629 10628 10627 10626 10626 10625 10625 10624 10624 10624 10624 10624 10623 10623 10622 10622 10621 10622 10623 10624 10623 10621 10620 10618
10621 10624 10625 10627 10630 10632 10634 10635 10636 10637 10637 10638 10638 10637 10636 10635 10635 10635 10634 10632 10631 10629 10627 10626 10625 10624 10624 10623 10622 10621 10620 10620 10619 10619 10620 10620 10621 10620 10619 10619 10617 10614 10613 10613 10612 10611 10609
10608 10611 10614 10615 10617 10620 10622 10624 10625 10627 10628 10628 10629 10629 10629 10628 10628 10628 10627 10626 10625 10623 10622 10621 10620 10620 10619 10618 10617 10615 10615 10615 10614 10612 10612 10612 10613 10613 10611 10612 10610 10606 10605 10603 10599 10599 10597
10593 10597 10600 10603 10604 10605 10607 10611 10613 10615 10616 10617 10618 10619 10619 10618 10618 10618 10618 10618 10617 10616 10614 10614 10613 10611 10611 10610 10609 10608 10606 10604 10604 10602 10600 10601 10602 10602 10602 10601 10599 10595 10595 10591 10589 10588 10583
10575 10580 10584 10587 10590 10593 10594 10595 10598 10600 10602 10604 10605 10607 10608 10608 10607 10607 10607 10607 10606 10605 10604 10602 10602 10601 10601 10600 10599 10598 10597 10594 10592 10590 10588 10586 10585 10585 10585 10585 10585 10582 10580 10577 10575 10573 10566
10557 10562 10565 10569 10573 10577 10579 10580 10582 10585 10586 10588 10590 10591 10593 10594 10594 10594 10594 10594 10593 10592 10592 10591 10589 10586 10589 10587 10587 10586 10586 10583 10580 10577 10573 10571 10569 10567 10565 10563 10564 10562 10560 10559 10556 10550 10545
10537 10543 10547 10550 10556 10559 10562 10565 10566 10568 10570 10571 10571 10575 10577 10579 10580 10580 10580 10580 10579 10578 10577 10575 10573 10572 10571 10569 10570 10570 10570 10568 10565 10562 10555 10554 10550 10548 10543 10539 10535 10536 10536 10536 10531 10525 10520